User: anonymous   Login
Location: Unspecified
(0.0000°N, 0.0000°E)
Time: 19:14:10
(UTC+00:00)
Language:

Milstar DFS 1 - Orbit

View from above orbital plane
View from above orbital plane
View from above satellite
View from above satellite

Ground track
Ground track

The orbit data is extracted from the following two-line orbital elements,

1 22988U 94009A   19082.81813390 -.00000280  00000-0  00000+0 0  9994
2 22988  13.3825  56.3558 0002281 330.2891  50.0150  1.00275855  5159
Epoch (UTC): 23 March 2019 19:38:06
Eccentricity: 0.0002281
inclination: 13.3825°
perigee height: 35775 km
apogee height: 35794 km
right ascension of ascending node: 56.3558°
argument of perigee: 330.2891°
revolutions per day: 1.00275855
mean anomaly at epoch: 50.0150°
orbit number at epoch: 515

The dashed part of the orbit path shows where the satellite is in the earth's shadow,  

DLR